Location: Moscow
(55.7500°N, 37.5830°E)
Time: 02:59:02
(UTC+03:00)

Kosmos-337 - Pass Details

Date: 06 July 2022
Orbit: 1467 x 1552 km, 74.0° (Epoch: 13 August)

Event Time Altitude Azimuth Distance (km) Brightness Sun altitude
Rises 23:08:57 0° 324° (NW) 4,736 ? -9.5°
Reaches altitude 10° 23:12:07 10° 331° (NNW) 3,751 ? -9.7°
Maximum altitude 23:20:58 48° 44° (NE) 1,946 ? -10.1°
Drops below altitude 10° 23:29:42 10° 118° (ESE) 3,709 ? -10.4°
Sets 23:32:48 0° 124° (SE) 4,678 ? -10.5°
